Flag for Australia Weather past 2 weeks in Adelaide, South Australia, Australia

Now
52 °F

Passing clouds.


Feels Like: 51 °F
Forecast: 48 / 63 °F
Wind: 5 mph from Northwest

Location: Adelaide Airport

Current Time: May 23, 2015 at 9:35:50 PM

Latest Report: May 23, 2015 at 9:00 PM


Visibility: N/A

Pressure: 30.36 "Hg

Humidity: 82%

Dew point: 46 °F

Location of AdelaideLocation

Historic Weather in Adelaide — Graph

°F

Adelaide temperature yesterday

Maximum temperature yesterday: 61 °F (at 12:00 PM)
Minimum temperature yesterday: 43 °F (at 11:30 PM)
Average temperature yesterday: 52 °F

Past Weeks' High & Low Weather Summary

 TemperatureHumidityPressure
High70 °F (May 18, 10:30 AM)100% (May 14, 2:00 AM)30.66 "Hg (May 14, 2:00 AM)
Low39 °F (May 17, 6:30 AM)42% (May 12, 4:30 PM)29.74 "Hg (May 19, 1:30 PM)
Average56 °F77%30.27 "Hg
* Reported May 8 7:30 PM — May 23 8:00 PM, Adelaide, Weather by CustomWeather, © 2015

Note: Actual official high and low records may vary slightly from our data, if they occured in-between our weather recording intervals... More about our weather records

Advertising

Adelaide weather history for previous 24 hours

 ConditionsComfort  
Time TempWeatherWind HumidityBarometerVisibility
8:00 PM
Sat, May 23
50 °FClear.5 mph82%30.36 "Hg10 mi
7:30 PM50 °FClear.2 mph88%30.36 "Hg10 mi
7:00 PM52 °FClear.5 mph82%30.36 "Hg10 mi
6:30 PM52 °FClear.3 mph82%30.36 "Hg10 mi
6:00 PM54 °FClear.3 mph77%30.36 "Hg10 mi
5:30 PM54 °FClear.6 mph77%30.36 "Hg10 mi
5:00 PM55 °FPassing clouds.5 mph72%30.36 "HgN/A
4:30 PM57 °FPartly sunny.6 mph67%30.36 "HgN/A
4:00 PM59 °FPartly sunny.6 mph59%30.36 "HgN/A
3:00 PM59 °FPartly sunny.8 mph63%30.39 "HgN/A
2:30 PM59 °FPartly sunny.9 mph63%30.39 "HgN/A
2:00 PM59 °FPartly sunny.9 mph63%30.39 "HgN/A
1:30 PM59 °FScattered clouds.6 mph59%30.39 "HgN/A
1:00 PM57 °FPartly sunny.7 mph63%30.39 "HgN/A
12:30 PM57 °FPartly sunny.7 mph63%30.42 "HgN/A
12:00 PM57 °FPartly sunny.8 mph63%30.42 "HgN/A
11:30 AM59 °FPartly sunny.3 mph59%30.45 "HgN/A
11:00 AM57 °FSunny.No wind63%30.45 "Hg10 mi
10:30 AM55 °FSunny.3 mph67%30.48 "Hg10 mi
10:00 AM54 °FSunny.3 mph72%30.48 "Hg10 mi
9:30 AM54 °FSunny.3 mph72%30.48 "Hg10 mi
9:00 AM50 °FSunny.No wind76%30.48 "Hg10 mi
8:30 AM48 °FSunny.No wind87%30.48 "Hg10 mi
8:00 AM43 °FSunny.No wind93%30.48 "Hg10 mi
7:30 AM41 °FSunny.No wind87%30.45 "Hg10 mi
7:00 AM39 °FFog.No wind100%30.45 "HgN/A
6:30 AM39 °FLight fog.No wind93%30.45 "HgN/A
6:00 AM39 °FClear.No wind93%30.45 "Hg10 mi
5:30 AM39 °FLight fog.No wind100%30.45 "HgN/A
5:00 AM39 °FLight fog.No wind93%30.42 "HgN/A
4:30 AM41 °FClear.No wind87%30.42 "Hg10 mi
4:00 AM39 °FClear.No wind93%30.45 "Hg10 mi
3:30 AM39 °FClear.No wind93%30.45 "Hg10 mi
3:00 AM41 °FClear.No wind93%30.45 "Hg10 mi
2:30 AM41 °FClear.No wind93%30.45 "Hg10 mi
2:00 AM41 °FClear.No wind93%30.45 "Hg10 mi
1:30 AM41 °FClear.No wind93%30.45 "Hg10 mi
1:00 AM43 °FClear.No wind93%30.45 "Hg10 mi
12:30 AM43 °FClear.No wind93%30.45 "Hg10 mi
12:00 AM45 °FClear.No wind87%30.45 "Hg10 mi
11:30 PM
Fri, May 22
43 °FClear.No wind87%30.45 "Hg10 mi
11:00 PM46 °FClear.2 mph87%30.45 "Hg10 mi
10:30 PM45 °FClear.5 mph87%30.45 "Hg10 mi
10:00 PM46 °FClear.6 mph87%30.48 "Hg10 mi
9:30 PM48 °FClear.6 mph76%30.45 "Hg10 mi
9:00 PM48 °FClear.6 mph76%30.45 "Hg10 mi
Weather by CustomWeather, © 2015

See weather overviewHow to use our weather pages